Location: *
(58.7167°N, 26.1833°E)
Time: 05:35:54
(UTC+00:00)

Meteor 2-5 Rocket - Pass Details

Date: 25 August 2019
Orbit: 833 x 912 km, 81.2° (Epoch: 21 September)

Event Time Altitude Azimuth Distance (km) Brightness Sun altitude
Rises 21:56:47 0° 342° (NNW) 3,400 8.3 -20.5°
Reaches altitude 10° 21:59:15 10° 337° (NNW) 2,466 7.2 -20.6°
Maximum altitude 22:04:36 49° 264° (W) 1,078 4.2 -20.6°
Enters shadow 22:06:35 34° 213° (SSW) 1,363 4.3 -20.6°
